Location: Durham
(54.7770°N, 1.5720°W)
Time: 17:45:54
(UTC+00:00)

ISS - Visible Passes

Search period start: 28 March 2015 00:00
Search period end: 07 April 2015 01:00
Orbit: 396 x 406 km, 51.6° (Epoch: 28 March)

Date Brightness Start Highest point End Pass type
(mag) Time Alt. Az. Time Alt. Az. Time Alt. Az.
28 Mar -2.0 03:34:08 28° SSE 03:34:08 28° SSE 03:36:03 10° SE visible
28 Mar -1.4 05:06:56 10° WSW 05:08:51 15° SSW 05:10:43 10° S visible
29 Mar -1.9 05:15:45 21° SSW 05:15:45 21° SSW 05:18:12 10° SSE visible
30 Mar -0.8 04:24:54 13° SE 04:24:54 13° SE 04:25:19 10° SE visible
04 Apr -0.9 21:24:25 10° S 21:24:33 11° S 21:24:33 11° S visible
05 Apr -1.2 22:05:45 10° SW 22:06:42 16° SSW 22:06:42 16° SSW visible
06 Apr -2.0 21:12:36 10° SSW 21:15:12 22° SSE 21:15:55 21° SE visible
06 Apr -0.7 22:48:01 10° WSW 22:48:31 13° WSW 22:48:31 13° WSW visible
